DW9783 Weather Reports


time (UTC)temp
C
wind
direction
speed
KPH
gust
KPH
rain 1hr
cm
rain 24hr
cm
rain mn
cm
humidity
%
barometer
mb
20260906111003 26 149 3.2 11.3 0.00 0.08 0.00 49 1024.9
20260906110106 26 75 1.6 6.4 0.00 0.08 0.00 52 1024.9
20260906105003 25 113 3.2 8.0 0.00 0.08 0.00 51 1025.0
20260906104003 25 199 4.8 9.7 0.00 0.08 0.00 53 1025.0
20260906103003 25 177 6.4 12.9 0.00 0.08 0.00 53 1025.2
20260906102003 24 172 3.2 16.1 0.00 0.08 0.00 55 1025.2
20260906101106 24 140 3.2 12.9 0.00 0.08 0.00 52 1025.4
20260906100004 24 147 3.2 17.7 0.00 0.08 0.00 54 1025.5
20260906095107 24 178 3.2 9.7 0.00 0.08 0.00 55 1025.6
20260906094106 24 177 1.6 16.1 0.00 0.08 0.00 56 1025.7
20260906093106 24 77 3.2 6.4 0.00 0.08 0.00 55 1025.9
20260906092107 23 192 3.2 6.4 0.00 0.08 0.00 58 1026.0
20260906091107 23 148 1.6 11.3 0.00 0.08 0.00 54 1026.1
20260906090106 23 67 1.6 6.4 0.00 0.08 0.00 54 1026.1
20260906085106 23 51 1.6 4.8 0.00 0.08 0.00 57 1026.1
20260906084004 22 60 1.6 4.8 0.00 0.08 0.00 55 1026.2
20260906083107 22 56 1.6 4.8 0.00 0.08 0.00 57 1026.3
20260906082106 22 89 1.6 4.8 0.00 0.08 0.00 59 1026.4
20260906081106 21 167 0.0 6.4 0.00 0.08 0.00 59 1026.4
20260906080003 21 93 0.0 3.2 0.00 0.08 0.00 63 1026.5
20260906075107 20 51 0.0 3.2 0.00 0.08 0.00 67 1026.5
20260906074107 19 32 1.6 8.0 0.00 0.08 0.00 71 1026.4
20260906073003 18 102 0.0 4.8 0.00 0.08 0.00 85 1026.3
20260906072003 18 137 0.0 3.2 0.00 0.08 0.00 89 1026.4
20260906071106 17 130 0.0 3.2 0.00 0.08 0.00 92 1026.3
20260906070003 17 130 0.0 3.2 0.00 0.08 0.00 93 1026.5
20260906065107 16 130 0.0 3.2 0.00 0.08 0.00 93 1026.4
20260906064106 16 117 0.0 3.2 0.00 0.08 0.00 93 1026.5
20260906063106 16 88 0.0 1.6 0.00 0.08 0.00 93 1026.5
20260906062003 15 88 0.0 3.2 0.00 0.08 0.00 93 1026.3
20260906061107 15 70 1.6 6.4 0.00 0.08 0.00 93 1026.3
20260906060004 15 60 4.8 14.5 0.00 0.08 0.00 94 1026.1
20260906055003 15 55 1.6 12.9 0.00 0.08 0.00 94 1025.6
20260906054003 14 0 0.0 0.0 0.00 0.08 0.00 94 1025.4
20260906053003 13 0 0.0 0.0 0.00 0.08 0.00 93 1025.2
20260906052004 13 0 0.0 0.0 0.00 0.08 0.00 93 1025.1
20260906051107 13 0 0.0 0.0 0.00 0.08 0.00 93 1025.2
20260906050003 13 0 0.0 0.0 0.00 0.08 0.00 93 1025.1
20260906045003 13 348 0.0 0.0 0.00 0.08 0.00 93 1025.0
20260906044107 13 0 0.0 0.0 0.00 0.08 0.00 93 1025.0
20260906043004 13 348 0.0 0.0 0.00 0.08 0.00 93 1024.9
20260906042003 14 0 0.0 0.0 0.00 0.08 0.00 93 1024.8
20260906041106 14 0 0.0 0.0 0.00 0.08 0.00 93 1024.7
20260906040003 14 0 0.0 0.0 0.00 0.08 0.00 93 1024.5
20260906035107 14 348 0.0 0.0 0.00 0.08 0.00 93 1024.4
20260906034004 14 0 0.0 0.0 0.00 0.08 0.00 93 1024.2
20260906033106 15 0 0.0 0.0 0.00 0.08 0.00 93 1024.2
20260906032003 15 348 0.0 0.0 0.00 0.08 0.00 93 1024.2
20260906031106 15 353 0.0 0.0 0.00 0.08 0.00 93 1024.1
20260906030004 15 353 0.0 0.0 0.00 0.08 0.00 93 1024.1
20260906025004 15 0 0.0 0.0 0.00 0.08 0.00 93 1024.0
20260906024106 15 0 0.0 0.0 0.00 0.08 0.00 93 1024.0
20260906023106 15 0 0.0 0.0 0.00 0.08 0.00 93 1023.8
20260906022003 15 0 0.0 0.0 0.00 0.08 0.00 93 1023.8
20260906021107 15 0 0.0 0.0 0.00 0.08 0.00 93 1023.8
20260906020003 15 0 0.0 0.0 0.00 0.08 0.00 93 1023.8
20260906015106 15 0 0.0 0.0 0.00 0.08 0.00 93 1023.8
20260906014106 15 0 0.0 0.0 0.00 0.08 0.00 93 1023.8
20260906013107 15 353 0.0 0.0 0.00 0.08 0.00 92 1023.9
20260906012107 15 0 0.0 0.0 0.00 0.08 0.00 92 1023.9
20260906011106 15 0 0.0 0.0 0.00 0.08 0.00 92 1023.8
20260906010106 15 0 0.0 0.0 0.00 0.08 0.00 92 1023.7
20260906005107 15 0 0.0 0.0 0.00 0.08 0.00 92 1023.7
20260906004003 15 0 0.0 0.0 0.00 0.08 0.00 92 1023.6
20260906003106 15 0 0.0 0.0 0.00 0.08 0.00 91 1023.6
20260906002003 15 0 0.0 0.0 0.00 0.08 0.00 91 1023.6
20260906001107 15 0 0.0 0.0 0.00 0.08 0.00 91 1023.6
20260906000004 15 0 0.0 0.0 0.00 0.08 0.00 90 1023.5
20260905235106 15 0 0.0 0.0 0.00 0.08 0.00 90 1023.4
20260905234003 15 0 0.0 0.0 0.00 0.08 0.00 90 1023.2
20260905233004 16 0 0.0 0.0 0.00 0.08 0.00 90 1023.2
20260905232107 16 0 0.0 0.0 0.00 0.08 0.00 90 1023.2
20260905231003 16 0 0.0 0.0 0.00 0.08 0.00 89 1023.2
20260905230106 16 0 0.0 0.0 0.00 0.08 0.00 89 1023.1
20260905225003 16 0 0.0 0.0 0.00 0.08 0.00 89 1023.2
20260905224004 16 0 0.0 0.0 0.00 0.08 0.00 89 1023.1
20260905223004 16 0 0.0 0.0 0.00 0.08 0.00 89 1023.1
20260905222106 17 0 0.0 0.0 0.00 0.08 0.00 88 1023.1
20260905221003 17 353 0.0 0.0 0.00 0.08 0.00 88 1023.1
20260905215004 17 0 0.0 0.0 0.00 0.08 0.08 88 1022.9
20260905214003 17 0 0.0 0.0 0.00 0.08 0.08 88 1022.8
20260905213003 17 0 0.0 0.0 0.00 0.08 0.08 88 1022.8
20260905212003 17 0 0.0 0.0 0.00 0.08 0.08 88 1022.6
20260905211106 18 0 0.0 0.0 0.00 0.08 0.08 88 1022.4
20260905210004 18 0 0.0 0.0 0.00 0.08 0.08 87 1022.4
20260905205106 18 0 0.0 0.0 0.00 0.08 0.08 87 1022.5
20260905204106 18 0 0.0 0.0 0.00 0.08 0.08 87 1022.5
20260905203003 18 353 0.0 0.0 0.00 0.08 0.08 86 1022.4
20260905202107 18 0 0.0 0.0 0.00 0.08 0.08 86 1022.3
20260905201107 18 0 0.0 0.0 0.00 0.08 0.08 86 1022.3
20260905200106 18 0 0.0 0.0 0.00 0.08 0.08 86 1021.9
20260905195106 18 348 0.0 1.6 0.00 0.08 0.08 86 1021.9
20260905194004 18 346 0.0 0.0 0.00 0.08 0.08 85 1021.8
20260905193107 18 0 0.0 0.0 0.00 0.08 0.08 84 1021.6
20260905192003 18 346 0.0 0.0 0.00 0.08 0.08 83 1021.3
20260905191003 19 0 0.0 0.0 0.00 0.08 0.08 82 1021.2
20260905190004 19 346 0.0 1.6 0.00 0.08 0.08 82 1021.0
20260905185003 18 343 0.0 1.6 0.00 0.08 0.08 83 1020.9
20260905184106 18 334 0.0 1.6 0.00 0.08 0.08 85 1021.0
20260905183004 18 280 0.0 0.0 0.00 0.08 0.08 86 1020.9
20260905182003 18 280 0.0 0.0 0.00 0.08 0.08 86 1020.8
20260905181003 18 0 0.0 0.0 0.00 0.08 0.08 86 1020.7
20260905180106 18 0 0.0 0.0 0.00 0.08 0.08 86 1020.7
20260905175107 18 0 0.0 0.0 0.00 0.08 0.08 85 1020.4
20260905174106 19 276 0.0 1.6 0.00 0.08 0.08 83 1020.2
20260905173106 19 276 0.0 0.0 0.00 0.08 0.08 83 1020.0
20260905172107 20 276 0.0 0.0 0.00 0.08 0.08 83 1020.0
20260905171107 20 276 0.0 1.6 0.00 0.08 0.08 81 1020.1
20260905170003 20 276 0.0 0.0 0.00 0.08 0.08 82 1019.9
20260905165003 20 276 0.0 0.0 0.00 0.08 0.08 82 1019.8
20260905164107 21 276 0.0 0.0 0.00 0.08 0.08 82 1019.7
20260905163004 21 276 0.0 0.0 0.00 0.08 0.08 82 1019.6
20260905162003 21 276 0.0 0.0 0.00 0.08 0.08 81 1019.6
20260905161106 21 276 0.0 0.0 0.00 0.08 0.08 81 1019.6
20260905160004 22 276 0.0 1.6 0.00 0.08 0.08 81 1019.6
20260905155107 22 276 0.0 1.6 0.00 0.08 0.08 80 1019.7
20260905154106 22 276 0.0 0.0 0.00 0.08 0.08 78 1019.6
20260905153106 22 276 0.0 1.6 0.00 0.08 0.08 77 1019.4
20260905152106 22 276 0.0 3.2 0.00 0.08 0.08 73 1019.6
20260905151107 22 276 0.0 0.0 0.00 0.08 0.08 79 1019.5
20260905150004 21 276 0.0 1.6 0.08 0.08 0.08 84 1019.7
20260905145106 21 276 0.0 0.0 0.08 0.08 0.08 82 1019.8
20260905144003 21 276 0.0 0.0 0.08 0.08 0.08 81 1019.9
20260905143107 21 276 0.0 3.2 0.08 0.08 0.08 81 1020.0
20260905142107 21 353 0.0 3.2 0.08 0.08 0.08 80 1020.1
20260905141003 22 2 0.0 1.6 0.08 0.08 0.08 76 1020.1
20260905140004 22 2 0.0 0.0 0.00 0.00 0.00 72 1020.1
20260905135106 21 2 0.0 1.6 0.00 0.00 0.00 68 1020.2
20260905134004 22 10 1.6 4.8 0.00 0.00 0.00 69 1020.3
20260905133107 22 357 1.6 6.4 0.00 0.00 0.00 66 1020.3
20260905132106 22 337 1.6 4.8 0.00 0.00 0.00 65 1020.2
20260905131003 23 335 3.2 3.2 0.00 0.00 0.00 60 1020.0
20260905130004 23 2 3.2 6.4 0.00 0.00 0.00 56 1020.0
20260905125003 24 358 1.6 11.3 0.00 0.00 0.00 50 1020.2
20260905124106 24 65 1.6 6.4 0.00 0.00 0.00 49 1020.0
20260905123106 25 76 1.6 3.2 0.00 0.00 0.00 51 1019.8
20260905122107 25 95 3.2 8.0 0.00 0.00 0.00 50 1019.7
20260905121003 25 52 3.2 12.9 0.00 0.00 0.00 47 1019.5
20260905120003 25 56 3.2 11.3 0.00 0.00 0.00 46 1019.5
20260905115003 25 65 3.2 14.5 0.00 0.00 0.00 47 1019.7
20260905114107 26 53 3.2 16.1 0.00 0.00 0.00 46 1019.6
20260905113004 26 76 3.2 9.7 0.00 0.00 0.00 46 1019.6
20260905112106 26 60 4.8 14.5 0.00 0.00 0.00 45 1019.5